Terug naar catalogus

STARLINK-30285

ActiefCommunicatieVLEO
NORAD 57840·PAYLOAD·🇺🇸 United States

Gelanceerd Sep 12, 2023 vanaf Vandenberg Space Force Base

Loading…

Volgende Passages (komende 24 uur)

TLE

VersSource: CelesTrak SupGP

Epoch: Sep 15, 2026, 01:37 UTC

1 57840C 23141A   26258.06784722  .00039755  00000+0  12787-2 0  2587
2 57840  53.1580 123.0527 0001124  81.9817 245.5252 15.31676668    15

Volg STARLINK-30285 in realtime met AllMySat

Download on the App Store